Aérodrome :
LOGIN :

S'inscrire | Disclaimer

   EN    FR    IT 

 










Légende :    VFR   VFR Marginal   IFR   IFR Intensif   IFR Très Intensif
Visi : 
Plafond : 
>= 8 km
>= 3000ft
5 à 8 km
1000 à 3000 ft
1500m à 5 km
500 à 1000 ft
800 à 1500m
200 à 500 ft
< 800m
< 200 ft
Symboles :   Orages  Brouillard  Fortes neiges  Fortes précipitations  Vent > 20 kt
SIGMETs :   Divers  Orages  Givrage  Turbulence  Onde Orograph.  Cendres Volcan.







- Altitude de l'aérodrome : 751 ft
- Code IATA : ENC
- Voir les cartes d'approche


LFSN - Nancy Essey

DERNIER METAR :
  • 281200Z AUTO 26008KT 220V310 9999 FEW033/// SCT044/// OVC072/// 22/14 Q1000

METARs EXPIRÉS :
  • 281130Z AUTO 25007KT 210V300 9999 BKN031/// BKN052/// OVC066/// 21/14 Q1000
  • 281100Z AUTO 24009KT 200V300 9999 SCT026/// SCT035/// BKN050/// 21/14 Q1001
  • 281030Z AUTO 24012KT 210V270 9999 SCT028/// BKN037/// OVC058/// 21/14 Q1001
  • 281000Z AUTO 24012KT 220V290 9999 FEW029/// BKN042/// OVC049/// 20/14 Q1001
  • 280930Z AUTO 22013G23KT 190V250 9999 FEW027 OVC038 20/14 Q1001

Prévision TAF périmée.
Pas de NOTAMs connus pour ce terrain.



MET'MAP, la Météo Aéronautique d'un coup d'oeil ! - Copyright ORBIFLY Décembre 2007 - Disclaimer

ORBIFLY MET'MAP TEAM :

Programmation & Développement : Alexandra Zaïnal
Conception & Développement : Baudouin d'Aumeries
Co-Programmation & Développement : Marc-Olivier Méhu
Soutien technique & logistique : Manuel Goepfert

Contact : metmap@orbifly.com




SOURCES & CREDITS :

   NOAA